Location: Chuathbaluk
(61.5726°N, 159.2454°W)
Time: 04:48:54
(UTC+00:00)

Transit 4A - Pass Details

Date: 29 November 2020
Orbit: 864 x 980 km, 66.8° (Epoch: 26 January)

Event Time Altitude Azimuth Distance (km) Brightness Sun altitude
Rises 21:45:48 0° 262° (W) 3,675 11.0 6.4°
Reaches altitude 10° 21:48:25 10° 266° (W) 2,734 10.3 6.4°
Maximum altitude 21:54:45 59° 346° (NNW) 1,127 8.2 6.5°
Drops below altitude 10° 22:01:06 10° 66° (ENE) 2,730 10.2 6.6°
Sets 22:03:42 0° 70° (ENE) 3,669 10.9 6.6°
